AFR607 SOCA-TFFF

Flight info

Callsign AFR607
Flight time 2h 0m
Altitude 38000
Route REKIM1A REKIM UN674 BUXEX UA555 BGI/N0385F240 A555 BORUS BORUS2X
Aircraft A320/M-SDE3FGHIRWY/LB1

Departure

Time 2026-05-07 15:47
Airport Cayenne – Félix Eboué Airport (SOCA)

Arrival

Time 2026-05-07 17:48
Airport Martinique Aimé Césaire International Airport (TFFF)
Time Latitude Longitude Altitude Speed Heading
2026-05-07 15:35 4.82119 -52.36421 30 ft 0 kts 352°
2026-05-07 15:40 4.82104 -52.36418 30 ft 4 kts 350°
2026-05-07 15:40 4.82078 -52.36413 30 ft 4 kts 348°
2026-05-07 15:40 4.82051 -52.36409 29 ft 4 kts
2026-05-07 15:41 4.82035 -52.36416 29 ft 1 kts 64°
2026-05-07 15:41 4.82034 -52.36419 29 ft 0 kts 64°
2026-05-07 15:43 4.82036 -52.36414 29 ft 4 kts 63°
2026-05-07 15:43 4.82058 -52.36369 29 ft 9 kts 65°
2026-05-07 15:43 4.82088 -52.36297 30 ft 12 kts 77°
2026-05-07 15:43 4.82030 -52.36239 29 ft 13 kts 156°
2026-05-07 15:44 4.81932 -52.36252 29 ft 20 kts 239°
2026-05-07 15:44 4.81857 -52.36403 28 ft 26 kts 245°
2026-05-07 15:44 4.81782 -52.36562 29 ft 24 kts 245°
2026-05-07 15:44 4.81711 -52.36719 28 ft 29 kts 245°
2026-05-07 15:45 4.81627 -52.36904 28 ft 29 kts 245°
2026-05-07 15:45 4.81538 -52.37094 27 ft 31 kts 245°
2026-05-07 15:45 4.81452 -52.37291 26 ft 26 kts 251°
2026-05-07 15:45 4.81438 -52.37409 25 ft 11 kts 249°
2026-05-07 15:46 4.81401 -52.37386 28 ft 0 kts 61°
2026-05-07 15:46 4.81406 -52.37378 27 ft 7 kts 61°
2026-05-07 15:47 4.81535 -52.37106 27 ft 79 kts 65°
2026-05-07 15:47 4.81854 -52.36420 28 ft 135 kts 65°
2026-05-07 15:47 4.82306 -52.35439 214 ft 166 kts 65°
2026-05-07 15:47 4.82776 -52.34323 709 ft 184 kts 71°
2026-05-07 15:48 4.83094 -52.33016 1140 ft 201 kts 78°
2026-05-07 15:48 4.83415 -52.31588 1560 ft 221 kts 75°
2026-05-07 15:48 4.83837 -52.30015 2016 ft 245 kts 73°
2026-05-07 15:48 4.84299 -52.28345 2833 ft 251 kts 73°
2026-05-07 15:49 4.84767 -52.26639 3754 ft 255 kts 73°
2026-05-07 15:49 4.85232 -52.24910 4659 ft 258 kts 75°
2026-05-07 15:49 4.85698 -52.23155 5498 ft 263 kts 75°
2026-05-07 15:49 4.86177 -52.21374 6350 ft 266 kts 71°
2026-05-07 15:50 4.87095 -52.19759 7097 ft 272 kts 47°
2026-05-07 15:50 4.88645 -52.18663 7865 ft 279 kts 24°
2026-05-07 15:50 4.90566 -52.18299 8658 ft 287 kts
2026-05-07 15:50 4.92575 -52.18447 9481 ft 291 kts 358°
2026-05-07 15:51 4.94606 -52.18619 10225 ft 298 kts 357°
2026-05-07 15:51 4.96751 -52.18801 10467 ft 321 kts 357°
2026-05-07 15:51 4.99037 -52.18992 10873 ft 336 kts 357°
2026-05-07 15:51 5.01354 -52.19184 11518 ft 342 kts 357°
2026-05-07 15:52 5.03743 -52.19381 12195 ft 346 kts 357°
2026-05-07 15:52 5.06160 -52.19579 12868 ft 351 kts 356°
2026-05-07 15:52 5.08610 -52.19781 13521 ft 355 kts 356°
2026-05-07 15:52 5.11088 -52.19982 14109 ft 360 kts 356°
2026-05-07 15:53 5.13597 -52.20184 14654 ft 364 kts 356°
2026-05-07 15:53 5.16136 -52.20390 15199 ft 368 kts 356°
2026-05-07 15:53 5.18706 -52.20600 15743 ft 372 kts 356°
2026-05-07 15:53 5.21297 -52.20812 16291 ft 376 kts 355°
2026-05-07 15:54 5.23914 -52.21025 16831 ft 379 kts 355°
2026-05-07 15:54 5.26555 -52.21237 17375 ft 383 kts 355°
2026-05-07 15:54 5.29227 -52.21452 17904 ft 387 kts 355°
2026-05-07 15:54 5.31922 -52.21668 18398 ft 390 kts 355°
2026-05-07 15:55 5.34642 -52.21887 18856 ft 393 kts 355°
2026-05-07 15:55 5.37382 -52.22110 19321 ft 396 kts 355°
2026-05-07 15:55 5.40135 -52.22335 19791 ft 398 kts 355°
2026-05-07 15:55 5.42883 -52.22719 20246 ft 401 kts 346°
2026-05-07 15:56 5.45512 -52.23653 20697 ft 403 kts 333°
2026-05-07 15:56 5.47895 -52.25137 21134 ft 405 kts 321°
2026-05-07 15:56 5.49896 -52.27078 21547 ft 407 kts 309°
2026-05-07 15:56 5.51620 -52.29389 21983 ft 409 kts 306°
2026-05-07 15:57 5.53294 -52.31694 22408 ft 412 kts 306°
2026-05-07 15:57 5.54985 -52.34027 22829 ft 415 kts 306°
2026-05-07 15:57 5.56688 -52.36375 23244 ft 417 kts 306°
2026-05-07 15:57 5.58406 -52.38739 23622 ft 420 kts 306°
2026-05-07 15:58 5.60135 -52.41118 23945 ft 423 kts 305°
2026-05-07 15:58 5.61876 -52.43515 24275 ft 426 kts 305°
2026-05-07 15:58 5.63624 -52.45927 24598 ft 429 kts 305°
2026-05-07 15:58 5.65382 -52.48355 24918 ft 431 kts 305°
2026-05-07 15:59 5.67150 -52.50797 25245 ft 433 kts 305°
2026-05-07 15:59 5.68929 -52.53249 25584 ft 436 kts 305°
2026-05-07 15:59 5.70720 -52.55711 25915 ft 438 kts 305°
2026-05-07 15:59 5.72521 -52.58184 26240 ft 440 kts 305°
2026-05-07 16:00 5.74306 -52.60641 26566 ft 442 kts 305°
2026-05-07 16:00 5.76122 -52.63145 26876 ft 444 kts 304°
2026-05-07 16:00 5.77943 -52.65659 27192 ft 446 kts 304°
2026-05-07 16:00 5.79770 -52.68182 27504 ft 448 kts 304°
2026-05-07 16:01 5.81612 -52.70722 27764 ft 450 kts 304°
2026-05-07 16:01 5.83460 -52.73269 28112 ft 453 kts 304°
2026-05-07 16:01 5.85319 -52.75828 28410 ft 455 kts 304°
2026-05-07 16:01 5.87188 -52.78403 28712 ft 457 kts 304°
2026-05-07 16:02 5.89063 -52.80994 29012 ft 459 kts 304°
2026-05-07 16:02 5.90949 -52.83603 29307 ft 461 kts 304°
2026-05-07 16:02 5.92840 -52.86221 29595 ft 464 kts 304°
2026-05-07 16:02 5.94731 -52.88835 29876 ft 466 kts 304°
2026-05-07 16:03 5.96644 -52.91478 30135 ft 468 kts 304°
2026-05-07 16:03 5.98558 -52.94125 30371 ft 469 kts 304°
2026-05-07 16:03 6.00480 -52.96782 30614 ft 471 kts 304°
2026-05-07 16:03 6.02407 -52.99443 30866 ft 472 kts 304°
2026-05-07 16:04 6.04338 -53.02108 31109 ft 473 kts 304°
2026-05-07 16:04 6.06277 -53.04778 31348 ft 474 kts 304°
2026-05-07 16:04 6.08222 -53.07457 31625 ft 474 kts 304°
2026-05-07 16:04 6.10159 -53.10128 31984 ft 472 kts 304°
2026-05-07 16:05 6.12088 -53.12795 32346 ft 470 kts 304°
2026-05-07 16:05 6.14005 -53.15452 32702 ft 469 kts 304°
2026-05-07 16:05 6.15917 -53.18099 33058 ft 467 kts 304°
2026-05-07 16:05 6.17824 -53.20737 33422 ft 465 kts 304°
2026-05-07 16:06 6.19727 -53.23361 33795 ft 464 kts 304°
2026-05-07 16:06 6.21621 -53.25977 34147 ft 462 kts 304°
2026-05-07 16:06 6.23505 -53.28590 34469 ft 460 kts 304°
2026-05-07 16:06 6.25376 -53.31186 34792 ft 458 kts 304°
2026-05-07 16:07 6.27222 -53.33742 35107 ft 456 kts 304°
2026-05-07 16:07 6.29082 -53.36314 35419 ft 454 kts 304°
2026-05-07 16:07 6.30935 -53.38878 35728 ft 452 kts 304°
2026-05-07 16:07 6.32781 -53.41430 36028 ft 450 kts 304°
2026-05-07 16:08 6.34622 -53.43977 36323 ft 449 kts 304°
2026-05-07 16:08 6.36450 -53.46509 36600 ft 447 kts 304°
2026-05-07 16:08 6.38274 -53.49040 36873 ft 446 kts 304°
2026-05-07 16:08 6.40103 -53.51580 37129 ft 445 kts 304°
2026-05-07 16:09 6.41914 -53.54094 37384 ft 443 kts 304°
2026-05-07 16:09 6.43710 -53.56581 37634 ft 442 kts 304°
2026-05-07 16:09 6.45526 -53.59092 37880 ft 441 kts 304°
2026-05-07 16:10 6.49148 -53.64112 37986 ft 447 kts 304°
2026-05-07 16:10 6.52820 -53.69206 37987 ft 454 kts 304°
2026-05-07 16:11 6.56532 -53.74357 37985 ft 456 kts 304°
2026-05-07 16:11 6.60256 -53.79516 37984 ft 456 kts 304°
2026-05-07 16:12 6.63968 -53.84675 37985 ft 455 kts 304°
2026-05-07 16:12 6.67687 -53.89835 37989 ft 456 kts 304°
2026-05-07 16:13 6.71379 -53.94968 37996 ft 456 kts 304°
2026-05-07 16:13 6.75225 -54.00042 37998 ft 458 kts 312°
2026-05-07 16:14 6.80035 -54.04251 37997 ft 459 kts 318°
2026-05-07 16:14 6.84932 -54.08396 38002 ft 459 kts 318°
2026-05-07 16:15 6.89808 -54.12538 38002 ft 459 kts 318°
2026-05-07 16:15 6.94691 -54.16678 38004 ft 459 kts 318°
2026-05-07 16:16 6.99571 -54.20815 38003 ft 459 kts 318°
2026-05-07 16:16 7.04451 -54.24955 37998 ft 459 kts 318°
2026-05-07 16:17 7.09332 -54.29092 37993 ft 459 kts 318°
2026-05-07 16:17 7.14045 -54.33083 37996 ft 459 kts 318°
2026-05-07 16:18 7.18892 -54.37200 37996 ft 459 kts 318°
2026-05-07 16:18 7.23809 -54.41391 37996 ft 459 kts 318°
2026-05-07 16:19 7.28641 -54.45497 37999 ft 460 kts 318°
2026-05-07 16:19 7.33564 -54.49665 38000 ft 460 kts 318°
2026-05-07 16:20 7.38427 -54.53786 37993 ft 460 kts 318°
2026-05-07 16:20 7.43351 -54.57982 37996 ft 460 kts 318°
2026-05-07 16:21 7.48225 -54.62136 37993 ft 461 kts 318°
2026-05-07 16:21 7.53130 -54.66305 37997 ft 461 kts 318°
2026-05-07 16:22 7.58011 -54.70448 38000 ft 461 kts 318°
2026-05-07 16:22 7.62908 -54.74624 37999 ft 461 kts 317°
2026-05-07 16:23 7.67819 -54.78805 38003 ft 461 kts 318°
2026-05-07 16:23 7.72735 -54.82984 38004 ft 462 kts 317°
2026-05-07 16:24 7.77615 -54.87139 38001 ft 462 kts 318°
2026-05-07 16:24 7.82551 -54.91347 38003 ft 462 kts 318°
2026-05-07 16:25 7.87448 -54.95516 38004 ft 462 kts 317°
2026-05-07 16:25 7.92009 -54.99410 38008 ft 462 kts 317°
2026-05-07 16:26 7.96908 -55.03594 38009 ft 462 kts 317°
2026-05-07 16:26 8.01812 -55.07789 38007 ft 462 kts 317°
2026-05-07 16:27 8.06713 -55.11973 38007 ft 462 kts 317°
2026-05-07 16:27 8.11625 -55.16152 38007 ft 462 kts 318°
2026-05-07 16:28 8.16528 -55.20332 38009 ft 462 kts 317°
2026-05-07 16:28 8.21427 -55.24523 38011 ft 461 kts 317°
2026-05-07 16:29 8.26328 -55.28713 38012 ft 461 kts 317°
2026-05-07 16:29 8.31228 -55.32898 38011 ft 462 kts 317°
2026-05-07 16:30 8.35303 -55.36385 38006 ft 462 kts 317°
2026-05-07 16:30 8.40209 -55.40574 38011 ft 462 kts 317°
2026-05-07 16:31 8.45106 -55.44771 38012 ft 462 kts 317°
2026-05-07 16:31 8.50005 -55.48972 38014 ft 462 kts 317°
2026-05-07 16:32 8.54910 -55.53171 38012 ft 462 kts 317°
2026-05-07 16:32 8.59815 -55.57366 38008 ft 462 kts 317°
2026-05-07 16:33 8.64720 -55.61562 38011 ft 462 kts 317°
2026-05-07 16:33 8.69593 -55.65736 38012 ft 462 kts 317°
2026-05-07 16:34 8.74494 -55.69941 38011 ft 462 kts 317°
2026-05-07 16:34 8.79397 -55.74147 38006 ft 462 kts 317°
2026-05-07 16:35 8.84301 -55.78367 38008 ft 462 kts 317°
2026-05-07 16:35 8.89202 -55.82579 38009 ft 462 kts 317°
2026-05-07 16:36 8.94110 -55.86785 38011 ft 463 kts 317°
2026-05-07 16:36 8.99017 -55.91007 38013 ft 463 kts 317°
2026-05-07 16:37 9.03925 -55.95225 38011 ft 463 kts 317°
2026-05-07 16:37 9.08836 -55.99436 38011 ft 463 kts 317°
2026-05-07 16:38 9.13736 -56.03656 38011 ft 463 kts 317°
2026-05-07 16:38 9.18633 -56.07878 38015 ft 463 kts 317°
2026-05-07 16:39 9.23539 -56.12102 38012 ft 462 kts 317°
2026-05-07 16:39 9.28445 -56.16318 38017 ft 463 kts 317°
2026-05-07 16:40 9.33349 -56.20538 38020 ft 463 kts 317°
2026-05-07 16:40 9.38250 -56.24762 38015 ft 463 kts 317°
2026-05-07 16:41 9.43151 -56.28996 38017 ft 463 kts 317°
2026-05-07 16:41 9.48008 -56.33193 38019 ft 460 kts 317°
2026-05-07 16:42 9.52903 -56.37411 38018 ft 459 kts 317°
2026-05-07 16:42 9.57738 -56.41581 38020 ft 459 kts 317°
2026-05-07 16:43 9.62606 -56.45780 38022 ft 459 kts 317°
2026-05-07 16:43 9.67470 -56.49979 38019 ft 459 kts 317°
2026-05-07 16:44 9.72333 -56.54181 38020 ft 459 kts 317°
2026-05-07 16:44 9.77197 -56.58387 38021 ft 460 kts 317°
2026-05-07 16:45 9.82063 -56.62597 38022 ft 460 kts 317°
2026-05-07 16:45 9.86907 -56.66798 38023 ft 459 kts 317°
2026-05-07 16:46 9.91783 -56.71019 38024 ft 459 kts 317°
2026-05-07 16:46 9.96646 -56.75224 38023 ft 459 kts 317°
2026-05-07 16:47 10.01519 -56.79438 38022 ft 459 kts 317°
2026-05-07 16:47 10.06344 -56.83617 38020 ft 458 kts 317°
2026-05-07 16:48 10.11178 -56.87816 38018 ft 458 kts 316°
2026-05-07 16:48 10.16038 -56.92041 38027 ft 458 kts 316°
2026-05-07 16:49 10.20872 -56.96225 38020 ft 458 kts 316°
2026-05-07 16:49 10.25726 -57.00442 38021 ft 458 kts 316°
2026-05-07 16:50 10.30563 -57.04641 38018 ft 458 kts 316°
2026-05-07 16:50 10.35409 -57.08858 38017 ft 458 kts 316°
2026-05-07 16:51 10.40263 -57.13074 38024 ft 458 kts 316°
2026-05-07 16:51 10.45091 -57.17259 38025 ft 458 kts 316°
2026-05-07 16:52 10.49950 -57.21487 38026 ft 458 kts 316°
2026-05-07 16:52 10.54764 -57.25684 38021 ft 458 kts 316°
2026-05-07 16:53 10.59631 -57.29921 38026 ft 459 kts 316°
2026-05-07 16:53 10.64449 -57.34121 38031 ft 459 kts 316°
2026-05-07 16:54 10.69308 -57.38348 38028 ft 458 kts 316°
2026-05-07 16:54 10.74146 -57.42563 38027 ft 458 kts 316°
2026-05-07 16:55 10.78982 -57.46791 38031 ft 457 kts 316°
2026-05-07 16:55 10.83787 -57.50983 38037 ft 457 kts 316°
2026-05-07 16:56 10.88625 -57.55200 38028 ft 456 kts 316°
2026-05-07 16:56 10.95852 -57.61506 38033 ft 456 kts 315°
2026-05-07 16:57 11.00643 -57.65698 38040 ft 456 kts 315°
2026-05-07 16:57 11.05451 -57.69905 38038 ft 456 kts 315°
2026-05-07 16:58 11.10253 -57.74107 38041 ft 455 kts 315°
2026-05-07 16:58 11.15055 -57.78299 38038 ft 454 kts 315°
2026-05-07 16:59 11.19846 -57.82496 38051 ft 454 kts 315°
2026-05-07 16:59 11.24634 -57.86694 38041 ft 454 kts 315°
2026-05-07 17:00 11.29421 -57.90883 38041 ft 453 kts 315°
2026-05-07 17:00 11.34202 -57.95067 38042 ft 453 kts 315°
2026-05-07 17:01 11.38968 -57.99255 38036 ft 452 kts 315°
2026-05-07 17:01 11.43728 -58.03445 38038 ft 452 kts 315°
2026-05-07 17:02 11.48484 -58.07625 38047 ft 451 kts 315°
2026-05-07 17:02 11.53217 -58.11770 38050 ft 451 kts 315°
2026-05-07 17:03 11.57966 -58.15933 38029 ft 450 kts 315°
2026-05-07 17:03 11.62703 -58.20100 38031 ft 449 kts 315°
2026-05-07 17:04 11.67433 -58.24267 38035 ft 449 kts 315°
2026-05-07 17:04 11.72168 -58.28428 38035 ft 449 kts 315°
2026-05-07 17:05 11.76900 -58.32585 38036 ft 449 kts 315°
2026-05-07 17:05 11.81628 -58.36750 38039 ft 448 kts 314°
2026-05-07 17:06 11.86343 -58.40916 38036 ft 448 kts 314°
2026-05-07 17:06 11.91062 -58.45079 38036 ft 448 kts 314°
2026-05-07 17:07 11.95780 -58.49238 38038 ft 448 kts 314°
2026-05-07 17:07 12.00499 -58.53396 38039 ft 448 kts 314°
2026-05-07 17:08 12.05220 -58.57564 38042 ft 448 kts 314°
2026-05-07 17:08 12.09903 -58.61702 38046 ft 448 kts 314°
2026-05-07 17:09 12.14612 -58.65875 38047 ft 448 kts 314°
2026-05-07 17:09 12.19329 -58.70051 38047 ft 448 kts 314°
2026-05-07 17:10 12.24043 -58.74211 38045 ft 448 kts 314°
2026-05-07 17:10 12.28755 -58.78373 38045 ft 447 kts 314°
2026-05-07 17:11 12.33464 -58.82534 38052 ft 447 kts 314°
2026-05-07 17:11 12.38162 -58.86705 38052 ft 447 kts 314°
2026-05-07 17:12 12.42855 -58.90872 38047 ft 446 kts 314°
2026-05-07 17:12 12.47549 -58.95032 38050 ft 446 kts 314°
2026-05-07 17:13 12.52240 -58.99180 38050 ft 445 kts 313°
2026-05-07 17:13 12.56921 -59.03332 38047 ft 445 kts 313°
2026-05-07 17:14 12.61566 -59.07463 38048 ft 445 kts 313°
2026-05-07 17:14 12.66239 -59.11622 38049 ft 445 kts 313°
2026-05-07 17:15 12.70915 -59.15777 38049 ft 445 kts 313°
2026-05-07 17:15 12.75589 -59.19934 38047 ft 445 kts 313°
2026-05-07 17:16 12.79474 -59.23399 38048 ft 445 kts 313°
2026-05-07 17:16 12.84148 -59.27555 38049 ft 445 kts 313°
2026-05-07 17:17 12.88822 -59.31709 38046 ft 444 kts 313°
2026-05-07 17:17 12.94248 -59.36545 38027 ft 446 kts 316°
2026-05-07 17:18 12.98205 -59.40081 38025 ft 454 kts 316°
2026-05-07 17:18 13.02952 -59.44325 38022 ft 456 kts 316°
2026-05-07 17:19 13.07736 -59.48599 38033 ft 456 kts 315°
2026-05-07 17:19 13.12357 -59.53047 38025 ft 455 kts 313°
2026-05-07 17:20 13.16807 -59.57648 38038 ft 454 kts 311°
2026-05-07 17:20 13.21248 -59.62232 37800 ft 446 kts 312°
2026-05-07 17:21 13.23443 -59.64455 37539 ft 440 kts 312°
2026-05-07 17:21 13.25624 -59.66646 37285 ft 438 kts 313°
2026-05-07 17:21 13.27799 -59.68828 37027 ft 437 kts 313°
2026-05-07 17:21 13.29970 -59.71009 36783 ft 437 kts 313°
2026-05-07 17:22 13.32145 -59.73195 36538 ft 438 kts 312°
2026-05-07 17:22 13.34318 -59.75386 36292 ft 438 kts 312°
2026-05-07 17:22 13.36496 -59.77584 36056 ft 439 kts 312°
2026-05-07 17:22 13.38674 -59.79781 35537 ft 439 kts 313°
2026-05-07 17:23 13.40840 -59.81965 35043 ft 435 kts 312°
2026-05-07 17:23 13.42996 -59.84142 34497 ft 433 kts 312°
2026-05-07 17:23 13.45137 -59.86308 33965 ft 432 kts 313°
2026-05-07 17:23 13.47246 -59.88440 33405 ft 429 kts 313°
2026-05-07 17:24 13.49365 -59.90582 32887 ft 426 kts 312°
2026-05-07 17:24 13.51471 -59.92710 32356 ft 423 kts 313°
2026-05-07 17:24 13.53562 -59.94823 31849 ft 420 kts 313°
2026-05-07 17:24 13.55640 -59.96926 31330 ft 418 kts 312°
2026-05-07 17:25 13.57703 -59.99015 30833 ft 415 kts 312°
2026-05-07 17:25 13.59753 -60.01092 30332 ft 413 kts 313°
2026-05-07 17:25 13.61792 -60.03159 29800 ft 410 kts 313°
2026-05-07 17:25 13.63817 -60.05209 29319 ft 406 kts 313°
2026-05-07 17:26 13.65821 -60.07233 28857 ft 401 kts 313°
2026-05-07 17:26 13.67796 -60.09231 28402 ft 396 kts 313°
2026-05-07 17:26 13.69749 -60.11212 27952 ft 392 kts 313°
2026-05-07 17:26 13.71681 -60.13173 27523 ft 388 kts 313°
2026-05-07 17:27 13.73593 -60.15112 27073 ft 384 kts 313°
2026-05-07 17:27 13.75483 -60.17028 26636 ft 381 kts 313°
2026-05-07 17:27 13.77359 -60.18927 26203 ft 377 kts 313°
2026-05-07 17:27 13.79217 -60.20809 25762 ft 375 kts 313°
2026-05-07 17:28 13.81082 -60.22704 25311 ft 373 kts 313°
2026-05-07 17:28 13.82930 -60.24584 24845 ft 371 kts 313°
2026-05-07 17:28 13.84754 -60.26439 24383 ft 370 kts 313°
2026-05-07 17:28 13.86577 -60.28290 23916 ft 369 kts 313°
2026-05-07 17:29 13.88411 -60.30150 23404 ft 369 kts 313°
2026-05-07 17:29 13.90217 -60.31984 22908 ft 367 kts 314°
2026-05-07 17:29 13.92037 -60.33831 22440 ft 364 kts 314°
2026-05-07 17:29 13.93834 -60.35656 21981 ft 362 kts 314°
2026-05-07 17:30 13.95617 -60.37473 21520 ft 360 kts 314°
2026-05-07 17:30 13.97389 -60.39281 21070 ft 358 kts 315°
2026-05-07 17:30 13.99155 -60.41082 20619 ft 356 kts 315°
2026-05-07 17:30 14.00915 -60.42872 20174 ft 355 kts 315°
2026-05-07 17:31 14.02668 -60.44654 19737 ft 354 kts 316°
2026-05-07 17:31 14.04363 -60.46483 19291 ft 353 kts 309°
2026-05-07 17:31 14.05674 -60.48622 18823 ft 354 kts 300°
2026-05-07 17:31 14.06845 -60.50853 18351 ft 354 kts 300°
2026-05-07 17:32 14.08019 -60.53087 17861 ft 354 kts 300°
2026-05-07 17:32 14.09192 -60.55309 17384 ft 352 kts 300°
2026-05-07 17:32 14.10361 -60.57515 16940 ft 350 kts 301°
2026-05-07 17:32 14.11524 -60.59711 16490 ft 349 kts 301°
2026-05-07 17:33 14.12684 -60.61898 16050 ft 348 kts 301°
2026-05-07 17:33 14.13840 -60.64082 15615 ft 347 kts 301°
2026-05-07 17:33 14.14990 -60.66259 15189 ft 346 kts 301°
2026-05-07 17:33 14.16136 -60.68431 14791 ft 344 kts 301°
2026-05-07 17:34 14.17273 -60.70590 14400 ft 342 kts 301°
2026-05-07 17:34 14.18390 -60.72714 14017 ft 340 kts 301°
2026-05-07 17:34 14.19515 -60.74853 13609 ft 339 kts 301°
2026-05-07 17:34 14.20637 -60.76983 13174 ft 337 kts 301°
2026-05-07 17:35 14.21752 -60.79099 12751 ft 335 kts 301°
2026-05-07 17:35 14.22860 -60.81203 12324 ft 333 kts 301°
2026-05-07 17:35 14.23959 -60.83294 11916 ft 329 kts 300°
2026-05-07 17:35 14.25040 -60.85348 11505 ft 322 kts 300°
2026-05-07 17:36 14.26097 -60.87355 11106 ft 316 kts 300°
2026-05-07 17:36 14.27136 -60.89330 10708 ft 311 kts 300°
2026-05-07 17:36 14.28160 -60.91276 10308 ft 308 kts 300°
2026-05-07 17:36 14.29172 -60.93201 9922 ft 303 kts 300°
2026-05-07 17:37 14.30167 -60.95100 9488 ft 299 kts 299°
2026-05-07 17:37 14.31150 -60.96975 9054 ft 294 kts 299°
2026-05-07 17:37 14.32124 -60.98824 8635 ft 293 kts 299°
2026-05-07 17:37 14.33087 -61.00651 8227 ft 287 kts 299°
2026-05-07 17:38 14.34036 -61.02457 7870 ft 285 kts 299°
2026-05-07 17:38 14.34978 -61.04247 7509 ft 283 kts 299°
2026-05-07 17:38 14.35914 -61.06026 7156 ft 281 kts 299°
2026-05-07 17:38 14.36842 -61.07795 6804 ft 279 kts 299°
2026-05-07 17:39 14.37763 -61.09551 6463 ft 277 kts 299°
2026-05-07 17:39 14.38678 -61.11293 6086 ft 275 kts 299°
2026-05-07 17:39 14.39587 -61.13020 5717 ft 273 kts 300°
2026-05-07 17:39 14.40486 -61.14730 5354 ft 270 kts 300°
2026-05-07 17:40 14.41378 -61.16429 4995 ft 269 kts 300°
2026-05-07 17:40 14.42263 -61.18116 4663 ft 266 kts 300°
2026-05-07 17:40 14.43135 -61.19782 4342 ft 263 kts 300°
2026-05-07 17:40 14.43987 -61.21413 4021 ft 260 kts 301°
2026-05-07 17:41 14.44947 -61.22965 3705 ft 254 kts 314°
2026-05-07 17:41 14.46283 -61.24124 3392 ft 249 kts 332°
2026-05-07 17:41 14.47848 -61.24850 3083 ft 246 kts 342°
2026-05-07 17:41 14.49433 -61.25499 2759 ft 244 kts 341°
2026-05-07 17:42 14.51001 -61.26138 2440 ft 240 kts 343°
2026-05-07 17:42 14.52599 -61.26357 2126 ft 230 kts 12°
2026-05-07 17:42 14.54020 -61.25752 1986 ft 219 kts 40°
2026-05-07 17:42 14.54962 -61.24550 1988 ft 217 kts 66°
2026-05-07 17:43 14.55304 -61.23037 1987 ft 218 kts 83°
2026-05-07 17:43 14.55501 -61.21491 1983 ft 217 kts 81°
2026-05-07 17:43 14.55703 -61.19975 1981 ft 206 kts 81°
2026-05-07 17:43 14.55936 -61.18544 1986 ft 200 kts 80°
2026-05-07 17:44 14.56184 -61.17133 1990 ft 201 kts 79°
2026-05-07 17:44 14.56436 -61.15719 1979 ft 199 kts 80°
2026-05-07 17:44 14.56683 -61.14318 1985 ft 197 kts 79°
2026-05-07 17:44 14.56927 -61.12924 1981 ft 197 kts 79°
2026-05-07 17:45 14.57158 -61.11604 1953 ft 176 kts 81°
2026-05-07 17:45 14.57367 -61.10404 1698 ft 162 kts 79°
2026-05-07 17:45 14.57554 -61.09328 1466 ft 145 kts 80°
2026-05-07 17:45 14.57725 -61.08337 1270 ft 137 kts 80°
2026-05-07 17:46 14.57890 -61.07380 1097 ft 133 kts 81°
2026-05-07 17:46 14.58049 -61.06452 919 ft 130 kts 79°
2026-05-07 17:46 14.58209 -61.05516 748 ft 133 kts 79°
2026-05-07 17:46 14.58366 -61.04593 579 ft 129 kts 76°
2026-05-07 17:47 14.58518 -61.03694 410 ft 126 kts 76°
2026-05-07 17:47 14.58666 -61.02802 236 ft 129 kts 77°
2026-05-07 17:47 14.58839 -61.01883 66 ft 130 kts 79°
2026-05-07 17:47 14.58985 -61.01040 21 ft 100 kts 80°
2026-05-07 17:48 14.59075 -61.00500 18 ft 60 kts 79°
2026-05-07 17:48 14.59141 -61.00122 19 ft 48 kts 79°
2026-05-07 17:48 14.59189 -60.99822 20 ft 37 kts 81°
2026-05-07 17:48 14.59242 -60.99673 22 ft 17 kts 30°
2026-05-07 17:49 14.59344 -60.99670 21 ft 11 kts 348°
2026-05-07 17:49 14.59399 -60.99716 21 ft 10 kts 285°
2026-05-07 17:49 14.59391 -60.99787 21 ft 10 kts 259°
2026-05-07 17:49 14.59406 -60.99834 22 ft 7 kts 356°
2026-05-07 17:50 14.59451 -60.99837 21 ft 6 kts 350°
2026-05-07 17:50 14.59471 -60.99840 21 ft 0 kts 351°